{"data":{"norad_id":52667,"epoch":"2026-09-19T22:33:56.153664Z","epoch_age_seconds":114803,"freshness":"FRESH","line1":"1 52667U 22053M   26262.94023326  .00000445  00000+0  46039-4 0  9993","line2":"2 52667  53.1619   1.4389 0001025  84.6829 275.4280 15.08837569240379","mean_motion":15.08837569,"eccentricity":0.0001025,"inclination_deg":53.1619,"raan_deg":1.4389,"arg_perigee_deg":84.6829,"mean_anomaly_deg":275.428,"bstar":4.6039e-5,"rev_number":24037,"period_min":95.437708444281,"perigee_km":539.04173606704,"apogee_km":540.45990307005,"semimajor_km":6917.8878195685,"source":"CELESTRAK","updated_at":"2026-09-20T09:00:40.102305Z"}}